Time,TemperatureF,DewpointF,PressureIn,WindDirection,WindDirectionDegrees,WindSpeedMPH,WindSpeedGustMPH,Humidity,HourlyPrecipIn,Conditions,Clouds,dailyrainin,SoftwareType,DateUTC
2013-02-15 00:02:00,62.0,61.0,29.99,NE,56,9.0,15.0,98,-99.99,,,-99.99,,2013-02-15 05:02:00,
2013-02-15 00:12:00,62.0,61.0,29.98,NNE,29,10.0,18.0,97,-99.99,,,-99.99,,2013-02-15 05:12:00,
2013-02-15 00:22:00,62.0,61.0,29.98,NNE,29,10.0,18.0,97,-99.99,,,-99.99,,2013-02-15 05:22:00,
2013-02-15 00:32:00,62.0,62.0,29.98,ENE,61,8.0,15.0,97,-99.99,,,-99.99,,2013-02-15 05:32:00,
2013-02-15 00:42:00,63.0,62.0,29.99,ESE,114,7.0,10.0,96,-99.99,,,-99.99,,2013-02-15 05:42:00,
2013-02-15 00:52:00,63.0,62.0,29.98,ENE,60,7.0,11.0,96,-99.99,,,-99.99,,2013-02-15 05:52:00,
2013-02-15 01:02:00,63.0,62.0,29.98,ENE,60,7.0,11.0,96,-99.99,,,-99.99,,2013-02-15 06:02:00,
2013-02-15 01:11:00,62.0,61.0,29.97,NE,52,5.0,8.0,96,-99.99,,,-99.99,,2013-02-15 06:11:00,
2013-02-15 01:22:00,62.0,61.0,29.97,NE,52,5.0,8.0,96,-99.99,,,-99.99,,2013-02-15 06:22:00,
2013-02-15 01:32:00,63.0,62.0,29.97,NNE,31,6.0,9.0,96,-99.99,,,-99.99,,2013-02-15 06:32:00,
2013-02-15 01:42:00,63.0,62.0,29.97,NE,38,4.0,7.0,95,-99.99,,,-99.99,,2013-02-15 06:42:00,
2013-02-15 01:52:00,63.0,62.0,29.97,NE,34,5.0,8.0,95,-99.99,,,-99.99,,2013-02-15 06:52:00,
2013-02-15 02:01:00,63.0,62.0,29.97,NE,34,5.0,8.0,95,-99.99,,,-99.99,,2013-02-15 07:01:00,
2013-02-15 02:11:00,63.0,62.0,29.96,NE,39,3.0,6.0,94,-99.99,,,-99.99,,2013-02-15 07:11:00,
2013-02-15 02:21:00,63.0,62.0,29.96,NE,39,3.0,6.0,94,-99.99,,,-99.99,,2013-02-15 07:21:00,
2013-02-15 02:32:00,63.0,62.0,29.96,NNE,31,3.0,5.0,95,-99.99,,,-99.99,,2013-02-15 07:32:00,
2013-02-15 02:42:00,63.0,62.0,29.96,WSW,247,1.0,2.0,96,-99.99,,,-99.99,,2013-02-15 07:42:00,
2013-02-15 02:52:00,63.0,63.0,29.96,SE,140,1.0,3.0,96,-99.99,,,-99.99,,2013-02-15 07:52:00,
2013-02-15 03:01:00,63.0,63.0,29.96,SE,140,1.0,3.0,96,-99.99,,,-99.99,,2013-02-15 08:01:00,
2013-02-15 03:11:00,64.0,63.0,29.95,ENE,73,3.0,4.0,96,-99.99,,,-99.99,,2013-02-15 08:11:00,
2013-02-15 03:21:00,64.0,63.0,29.95,ENE,73,3.0,4.0,96,-99.99,,,-99.99,,2013-02-15 08:21:00,
2013-02-15 03:32:00,64.0,63.0,29.95,ENE,73,3.0,4.0,96,-99.99,,,-99.99,,2013-02-15 08:32:00,
2013-02-15 03:42:00,65.0,64.0,29.96,ESE,107,4.0,7.0,96,-99.99,,,-99.99,,2013-02-15 08:42:00,
2013-02-15 03:53:00,64.0,64.0,29.95,SSW,194,4.0,7.0,96,-99.99,,,-99.99,,2013-02-15 08:53:00,
2013-02-15 04:02:00,64.0,64.0,29.95,SSW,194,4.0,7.0,96,-99.99,,,-99.99,,2013-02-15 09:02:00,
2013-02-15 04:12:00,64.0,63.0,29.95,ENE,66,3.0,5.0,97,-99.99,,,-99.99,,2013-02-15 09:12:00,
2013-02-15 04:22:00,64.0,63.0,29.95,ENE,66,3.0,5.0,97,-99.99,,,-99.99,,2013-02-15 09:22:00,
2013-02-15 04:32:00,64.0,64.0,29.95,SSE,168,2.0,4.0,97,-99.99,,,-99.99,,2013-02-15 09:32:00,
2013-02-15 04:42:00,65.0,64.0,29.94,ENE,67,4.0,7.0,97,-99.99,,,-99.99,,2013-02-15 09:42:00,
2013-02-15 04:52:00,65.0,64.0,29.94,NE,56,6.0,10.0,97,-99.99,,,-99.99,,2013-02-15 09:52:00,
2013-02-15 05:01:00,65.0,64.0,29.94,NE,56,6.0,10.0,97,-99.99,,,-99.99,,2013-02-15 10:01:00,
2013-02-15 05:11:00,65.0,64.0,29.95,NE,42,6.0,9.0,97,-99.99,,,-99.99,,2013-02-15 10:11:00,
2013-02-15 05:21:00,65.0,64.0,29.95,NE,42,6.0,9.0,97,-99.99,,,-99.99,,2013-02-15 10:21:00,
2013-02-15 05:32:00,65.0,65.0,29.96,NE,47,5.0,8.0,97,-99.99,,,-99.99,,2013-02-15 10:32:00,
2013-02-15 05:42:00,65.0,65.0,29.96,NW,304,6.0,8.0,97,-99.99,,,-99.99,,2013-02-15 10:42:00,
2013-02-15 05:52:00,65.0,64.0,29.96,ESE,108,6.0,9.0,98,-99.99,,,-99.99,,2013-02-15 10:52:00,
2013-02-15 06:01:00,65.0,64.0,29.96,ESE,108,6.0,9.0,98,-99.99,,,-99.99,,2013-02-15 11:01:00,
2013-02-15 06:11:00,65.0,65.0,29.96,ENE,60,4.0,7.0,98,-99.99,,,-99.99,,2013-02-15 11:11:00,
2013-02-15 06:23:00,65.0,65.0,29.96,ENE,60,4.0,7.0,98,-99.99,,,-99.99,,2013-02-15 11:23:00,
2013-02-15 06:32:00,65.0,65.0,29.96,ENE,60,4.0,7.0,98,-99.99,,,-99.99,,2013-02-15 11:32:00,
2013-02-15 06:42:00,65.0,65.0,29.96,ENE,75,5.0,9.0,98,-99.99,,,-99.99,,2013-02-15 11:42:00,
2013-02-15 06:52:00,65.0,65.0,29.97,NNE,31,5.0,7.0,98,-99.99,,,-99.99,,2013-02-15 11:52:00,
2013-02-15 07:02:00,65.0,65.0,29.97,NNE,31,5.0,7.0,98,-99.99,,,-99.99,,2013-02-15 12:02:00,
2013-02-15 07:11:00,65.0,65.0,29.98,South,191,4.0,7.0,98,-99.99,,,-99.99,,2013-02-15 12:11:00,
2013-02-15 07:22:00,65.0,65.0,29.98,South,191,4.0,7.0,98,-99.99,,,-99.99,,2013-02-15 12:22:00,
2013-02-15 07:30:00,65.0,65.0,29.99,East,95,12.0,45.0,97,-99.99,,,-99.99,,2013-02-15 12:30:00,
2013-02-15 07:32:00,65.0,65.0,29.98,ENE,67,4.0,6.0,98,-99.99,,,-99.99,,2013-02-15 12:32:00,
2013-02-15 07:42:00,65.0,65.0,29.98,ENE,67,4.0,6.0,98,-99.99,,,-99.99,,2013-02-15 12:42:00,
2013-02-15 07:52:00,65.0,65.0,29.99,East,95,12.0,45.0,97,-99.99,,,-99.99,,2013-02-15 12:52:00,
2013-02-15 08:02:00,65.0,65.0,29.99,East,95,12.0,45.0,97,-99.99,,,-99.99,,2013-02-15 13:02:00,
2013-02-15 08:11:00,65.0,65.0,29.99,East,95,12.0,45.0,97,-99.99,,,-99.99,,2013-02-15 13:11:00,
2013-02-15 08:22:00,65.0,65.0,29.99,East,95,12.0,45.0,97,-99.99,,,-99.99,,2013-02-15 13:22:00,
2013-02-15 09:01:00,65.0,65.0,29.99,East,95,12.0,45.0,97,-99.99,,,-99.99,,2013-02-15 14:01:00,
2013-02-15 09:12:00,66.0,65.0,30.00,ESE,103,6.0,45.0,96,-99.99,,,-99.99,,2013-02-15 14:12:00,
2013-02-15 09:22:00,66.0,65.0,30.00,ESE,103,6.0,45.0,96,-99.99,,,-99.99,,2013-02-15 14:22:00,
2013-02-15 09:32:00,66.0,65.0,30.00,ESE,103,6.0,45.0,96,-99.99,,,-99.99,,2013-02-15 14:32:00,
2013-02-15 09:42:00,67.0,66.0,29.99,ESE,108,5.0,8.0,96,-99.99,,,-99.99,,2013-02-15 14:42:00,
2013-02-15 09:52:00,67.0,66.0,29.99,ESE,108,5.0,8.0,96,-99.99,,,-99.99,,2013-02-15 14:52:00,
2013-02-15 10:02:00,67.0,66.0,29.99,East,94,5.0,8.0,96,-99.99,,,-99.99,,2013-02-15 15:02:00,
2013-02-15 10:11:00,68.0,66.0,30.00,ENE,64,4.0,6.0,95,-99.99,,,-99.99,,2013-02-15 15:11:00,
2013-02-15 10:22:00,68.0,66.0,30.00,ENE,64,4.0,6.0,95,-99.99,,,-99.99,,2013-02-15 15:22:00,
2013-02-15 10:32:00,68.0,67.0,30.01,ENE,64,4.0,6.0,94,-99.99,,,-99.99,,2013-02-15 15:32:00,
2013-02-15 10:42:00,69.0,66.0,30.01,ENE,62,4.0,6.0,92,-99.99,,,-99.99,,2013-02-15 15:42:00,
2013-02-15 10:52:00,70.0,66.0,30.02,NE,45,4.0,7.0,89,-99.99,,,-99.99,,2013-02-15 15:52:00,
2013-02-15 11:02:00,70.0,66.0,30.02,NE,45,4.0,7.0,89,-99.99,,,-99.99,,2013-02-15 16:02:00,
2013-02-15 11:11:00,70.0,66.0,30.02,NNE,30,5.0,8.0,86,-99.99,,,-99.99,,2013-02-15 16:11:00,
2013-02-15 11:22:00,70.0,66.0,30.02,NNE,30,5.0,8.0,86,-99.99,,,-99.99,,2013-02-15 16:22:00,
2013-02-15 11:32:00,70.0,66.0,30.02,NE,53,5.0,7.0,85,-99.99,,,-99.99,,2013-02-15 16:32:00,
2013-02-15 11:42:00,70.0,65.0,30.02,SSW,210,3.0,5.0,83,-99.99,,,-99.99,,2013-02-15 16:42:00,
2013-02-15 11:52:00,70.0,65.0,30.02,SSW,210,3.0,5.0,83,-99.99,,,-99.99,,2013-02-15 16:52:00,
2013-02-15 12:01:00,70.0,65.0,30.01,SE,138,4.0,6.0,84,-99.99,,,-99.99,,2013-02-15 17:01:00,
2013-02-15 12:11:00,70.0,66.0,30.01,WSW,240,4.0,6.0,86,-99.99,,,-99.99,,2013-02-15 17:11:00,
2013-02-15 12:21:00,70.0,66.0,30.01,NW,314,5.0,7.0,87,-99.99,,,-99.99,,2013-02-15 17:21:00,
2013-02-15 12:32:00,70.0,66.0,30.01,NW,314,5.0,7.0,87,-99.99,,,-99.99,,2013-02-15 17:32:00,
2013-02-15 12:42:00,69.0,65.0,30.01,NW,318,6.0,10.0,87,-99.99,,,-99.99,,2013-02-15 17:42:00,
2013-02-15 12:52:00,68.0,64.0,30.00,WNW,290,6.0,9.0,87,-99.99,,,-99.99,,2013-02-15 17:52:00,
2013-02-15 13:02:00,68.0,64.0,30.00,WNW,290,6.0,9.0,87,-99.99,,,-99.99,,2013-02-15 18:02:00,
2013-02-15 13:12:00,67.0,65.0,30.00,NNW,332,8.0,13.0,92,-99.99,,,-99.99,,2013-02-15 18:12:00,
2013-02-15 13:22:00,67.0,65.0,30.00,NNW,332,8.0,13.0,92,-99.99,,,-99.99,,2013-02-15 18:22:00,
2013-02-15 13:32:00,67.0,66.0,30.00,NNW,330,8.0,14.0,94,-99.99,,,-99.99,,2013-02-15 18:32:00,
2013-02-15 13:42:00,67.0,66.0,29.99,NNW,327,8.0,12.0,95,-99.99,,,-99.99,,2013-02-15 18:42:00,
2013-02-15 13:52:00,67.0,66.0,29.98,NNW,331,9.0,13.0,94,-99.99,,,-99.99,,2013-02-15 18:52:00,
2013-02-15 14:02:00,67.0,66.0,29.98,NNW,331,9.0,13.0,94,-99.99,,,-99.99,,2013-02-15 19:02:00,
2013-02-15 14:11:00,67.0,65.0,29.98,NNW,330,9.0,13.0,93,-99.99,,,-99.99,,2013-02-15 19:11:00,
2013-02-15 14:22:00,67.0,65.0,29.97,NW,321,7.0,12.0,92,-99.99,,,-99.99,,2013-02-15 19:22:00,
2013-02-15 14:32:00,67.0,65.0,29.97,NW,321,7.0,12.0,92,-99.99,,,-99.99,,2013-02-15 19:32:00,
2013-02-15 14:42:00,67.0,65.0,29.97,NW,316,7.0,10.0,92,-99.99,,,-99.99,,2013-02-15 19:42:00,
2013-02-15 14:52:00,67.0,65.0,29.96,NW,307,6.0,9.0,94,-99.99,,,-99.99,,2013-02-15 19:52:00,
2013-02-15 15:01:00,67.0,65.0,29.96,NW,307,6.0,9.0,94,-99.99,,,-99.99,,2013-02-15 20:01:00,
2013-02-15 15:11:00,67.0,65.0,29.96,NW,319,6.0,8.0,94,-99.99,,,-99.99,,2013-02-15 20:11:00,
2013-02-15 15:22:00,66.0,65.0,29.96,NNW,328,6.0,8.0,95,-99.99,,,-99.99,,2013-02-15 20:22:00,
2013-02-15 15:32:00,66.0,65.0,29.96,NNW,328,6.0,8.0,95,-99.99,,,-99.99,,2013-02-15 20:32:00,
2013-02-15 15:42:00,66.0,64.0,29.96,NNW,329,5.0,8.0,95,-99.99,,,-99.99,,2013-02-15 20:42:00,
2013-02-15 15:52:00,66.0,65.0,29.96,NW,321,4.0,7.0,95,-99.99,,,-99.99,,2013-02-15 20:52:00,
2013-02-15 16:02:00,66.0,65.0,29.96,NW,321,4.0,7.0,95,-99.99,,,-99.99,,2013-02-15 21:02:00,
2013-02-15 16:11:00,66.0,64.0,29.95,NNW,330,5.0,7.0,96,-99.99,,,-99.99,,2013-02-15 21:11:00,
2013-02-15 16:22:00,65.0,64.0,29.95,NNW,327,3.0,5.0,95,-99.99,,,-99.99,,2013-02-15 21:22:00,
2013-02-15 16:32:00,65.0,64.0,29.95,NNW,327,3.0,5.0,95,-99.99,,,-99.99,,2013-02-15 21:32:00,
2013-02-15 16:42:00,65.0,63.0,29.95,NW,318,2.0,4.0,94,-99.99,,,-99.99,,2013-02-15 21:42:00,
2013-02-15 16:52:00,65.0,63.0,29.96,NW,316,2.0,3.0,94,-99.99,,,-99.99,,2013-02-15 21:52:00,
2013-02-15 17:02:00,65.0,63.0,29.96,NW,316,2.0,3.0,94,-99.99,,,-99.99,,2013-02-15 22:02:00,
2013-02-15 17:11:00,65.0,64.0,29.95,SSE,166,2.0,3.0,95,-99.99,,,-99.99,,2013-02-15 22:11:00,
2013-02-15 17:22:00,66.0,64.0,29.96,NW,313,3.0,4.0,96,-99.99,,,-99.99,,2013-02-15 22:22:00,
2013-02-15 17:32:00,66.0,64.0,29.96,NW,313,3.0,4.0,96,-99.99,,,-99.99,,2013-02-15 22:32:00,
2013-02-15 17:42:00,65.0,64.0,29.96,NNW,330,4.0,7.0,96,-99.99,,,-99.99,,2013-02-15 22:42:00,
2013-02-15 17:52:00,65.0,64.0,29.96,NW,321,3.0,5.0,96,-99.99,,,-99.99,,2013-02-15 22:52:00,
2013-02-15 18:02:00,65.0,64.0,29.96,NW,321,3.0,5.0,96,-99.99,,,-99.99,,2013-02-15 23:02:00,
2013-02-15 18:11:00,65.0,64.0,29.95,SW,233,4.0,8.0,97,-99.99,,,-99.99,,2013-02-15 23:11:00,
2013-02-15 18:21:00,65.0,64.0,29.96,SW,216,5.0,7.0,97,-99.99,,,-99.99,,2013-02-15 23:21:00,
2013-02-15 18:32:00,65.0,64.0,29.96,SW,216,5.0,7.0,97,-99.99,,,-99.99,,2013-02-15 23:32:00,
2013-02-15 18:42:00,65.0,64.0,29.96,East,84,5.0,7.0,97,-99.99,,,-99.99,,2013-02-15 23:42:00,
2013-02-15 18:52:00,64.0,64.0,29.95,NE,35,4.0,7.0,97,-99.99,,,-99.99,,2013-02-15 23:52:00,
2013-02-15 19:02:00,64.0,64.0,29.95,NE,35,4.0,7.0,97,-99.99,,,-99.99,,2013-02-16 00:02:00,
2013-02-15 19:11:00,64.0,63.0,29.95,NE,50,3.0,5.0,97,-99.99,,,-99.99,,2013-02-16 00:11:00,
2013-02-15 19:22:00,64.0,63.0,29.94,NE,49,2.0,4.0,97,-99.99,,,-99.99,,2013-02-16 00:22:00,
2013-02-15 19:32:00,64.0,63.0,29.94,NE,49,2.0,4.0,97,-99.99,,,-99.99,,2013-02-16 00:32:00,
2013-02-15 19:42:00,64.0,63.0,29.94,NE,53,3.0,5.0,97,-99.99,,,-99.99,,2013-02-16 00:42:00,
2013-02-15 19:52:00,64.0,63.0,29.94,NNE,33,3.0,4.0,97,-99.99,,,-99.99,,2013-02-16 00:52:00,
2013-02-15 20:02:00,64.0,63.0,29.94,NNE,33,3.0,4.0,97,-99.99,,,-99.99,,2013-02-16 01:02:00,
2013-02-15 20:11:00,64.0,64.0,29.93,NE,44,4.0,6.0,97,-99.99,,,-99.99,,2013-02-16 01:11:00,
2013-02-15 20:21:00,64.0,64.0,29.93,NNE,32,4.0,6.0,97,-99.99,,,-99.99,,2013-02-16 01:21:00,
2013-02-15 20:32:00,64.0,64.0,29.93,NNE,32,4.0,6.0,97,-99.99,,,-99.99,,2013-02-16 01:32:00,
2013-02-15 20:42:00,64.0,64.0,29.95,NNW,332,3.0,4.0,97,-99.99,,,-99.99,,2013-02-16 01:42:00,
2013-02-15 20:52:00,64.0,63.0,29.95,WNW,288,2.0,3.0,98,-99.99,,,-99.99,,2013-02-16 01:52:00,
2013-02-15 21:01:00,64.0,63.0,29.95,WNW,288,2.0,3.0,98,-99.99,,,-99.99,,2013-02-16 02:01:00,
2013-02-15 21:11:00,64.0,64.0,29.96,ESE,107,2.0,3.0,98,-99.99,,,-99.99,,2013-02-16 02:11:00,
2013-02-15 21:22:00,64.0,64.0,29.96,ESE,107,2.0,3.0,98,-99.99,,,-99.99,,2013-02-16 02:22:00,
2013-02-15 21:32:00,64.0,64.0,29.96,ENE,74,1.0,3.0,98,-99.99,,,-99.99,,2013-02-16 02:32:00,
2013-02-15 21:42:00,64.0,63.0,29.96,SSE,151,1.0,2.0,98,-99.99,,,-99.99,,2013-02-16 02:42:00,
2013-02-15 21:52:00,64.0,64.0,29.96,WSW,247,2.0,4.0,98,-99.99,,,-99.99,,2013-02-16 02:52:00,
2013-02-15 22:02:00,64.0,64.0,29.96,WSW,247,2.0,4.0,98,-99.99,,,-99.99,,2013-02-16 03:02:00,
2013-02-15 22:11:00,64.0,64.0,29.96,NNW,336,4.0,6.0,98,-99.99,,,-99.99,,2013-02-16 03:11:00,
2013-02-15 22:21:00,64.0,64.0,29.96,NNW,336,4.0,6.0,98,-99.99,,,-99.99,,2013-02-16 03:21:00,
2013-02-15 22:32:00,64.0,63.0,29.95,SSW,192,2.0,4.0,98,-99.99,,,-99.99,,2013-02-16 03:32:00,
2013-02-15 22:42:00,64.0,63.0,29.96,WNW,287,3.0,5.0,98,-99.99,,,-99.99,,2013-02-16 03:42:00,
2013-02-15 22:52:00,64.0,63.0,29.96,NNW,340,4.0,5.0,98,-99.99,,,-99.99,,2013-02-16 03:52:00,
2013-02-15 23:01:00,64.0,63.0,29.96,NNW,340,4.0,5.0,98,-99.99,,,-99.99,,2013-02-16 04:01:00,
2013-02-15 23:11:00,64.0,63.0,29.96,West,260,4.0,6.0,98,-99.99,,,-99.99,,2013-02-16 04:11:00,
2013-02-15 23:21:00,64.0,63.0,29.96,West,260,4.0,6.0,98,-99.99,,,-99.99,,2013-02-16 04:21:00,
2013-02-15 23:32:00,63.0,63.0,29.95,ENE,60,4.0,5.0,98,-99.99,,,-99.99,,2013-02-16 04:32:00,
2013-02-15 23:42:00,63.0,63.0,29.95,NNW,330,3.0,5.0,98,-99.99,,,-99.99,,2013-02-16 04:42:00,
2013-02-15 23:52:00,64.0,63.0,29.94,NNW,339,4.0,5.0,98,-99.99,,,-99.99,,2013-02-16 04:52:00,